TIME,�g��[���C[MJ/h],����[MJ/h],�Ɩ�[MJ/h],�~�[[MJ/h],�①��[MJ/h],��y���[MJ/h],�Ǝ��q��[MJ/h],���̑�[MJ/h],�����G�l���M�[[MJ/h]
2004/4/1 0:00,10.4363,0,0,0.197,0.3635,0.3722,0.0474,0.9896,0
2004/4/1 0:15,8.7631,0,0,0.2137,0.2714,0.4054,0.0105,1.2781,0
2004/4/1 0:30,1.4731,0,0,0.204,0.0534,0.393,0.0078,1.063,0
2004/4/1 0:45,5.6026,0,0,0.2169,0.3108,0.0425,0.0498,1.0984,0
2004/4/1 1:00,11.4924,0,0,0.2131,0.2974,0.0422,0.0079,1.4376,0
2004/4/1 1:15,4.3907,0,0,0.2154,0.158,0.042,0.0531,0.5194,0
2004/4/1 1:30,1.452,0,0,0.212,0.3361,0.0418,0.0078,0.3118,0
2004/4/1 1:45,2.8744,0,0,0.2056,0.3698,0.0419,0.0078,0.3141,0
2004/4/1 2:00,11.3985,0,0,0.3812,0.1557,0.0419,0.0589,0.1361,0
2004/4/1 2:15,4.6384,0,0,0.4185,0.1382,0.0425,0.0078,0.1174,0
2004/4/1 2:30,1.2875,0,0,0.2439,0.304,0.0428,0.05,0.2779,0
2004/4/1 2:45,0,0,0,0.186,0.2876,0.0431,0.0078,0.3478,0
2004/4/1 3:00,4.1733,0,0,0.2359,0.3381,0.0422,0.0078,0.4594,0
2004/4/1 3:15,11.4735,0,0,0.2409,0.3887,0.0423,0.0528,0.4176,0
2004/4/1 3:30,0.7083,0,0,0.2444,0.5682,0.0428,0.0079,0.4399,0
2004/4/1 3:45,0,0,0,0.2445,0.4654,0.0429,0.0518,0.4716,0
2004/4/1 4:00,1.0731,0,0,0.2434,0.4834,0.0429,0.0078,0.3273,0
2004/4/1 4:15,1.4632,0,0,0.2448,0.4137,0.0429,0.0537,0.3735,0
2004/4/1 4:30,9.22,0,0,0.246,0.4491,0.0428,0.0078,0.5282,0
2004/4/1 4:45,3.5022,0,0,0.2491,0.4627,0.0429,0.0078,0.5396,0
2004/4/1 5:00,1.3078,0,0,0.2447,0.0867,0.0429,0.0514,0.2504,0
2004/4/1 5:15,1.056,0,0,0.2483,0.2059,0.0425,0.0078,0.2591,0
2004/4/1 5:30,0,0,0,0.2487,0.2952,0.0425,0.055,0.3416,0
2004/4/1 5:45,1.0555,0,0,0.2411,0.2336,0.0422,0.0078,0.4542,0
2004/4/1 6:00,11.3028,0,0,0.2559,0.0585,0.042,0.0078,0.3833,0
2004/4/1 6:15,2.4348,0,0,0.249,0.3109,0.0425,0.0576,0.3167,0
2004/4/1 6:30,0,0,0,0.2506,0.2796,0.0425,0.0078,0.4216,0
2004/4/1 6:45,0,0,0,0.2491,0.0792,0.0425,0.0543,0.3995,0
2004/4/1 7:00,1.2253,0,0,0.249,0.2943,0.2791,0.0078,0.7191,0
2004/4/1 7:15,0.9694,0,0,0.2478,0.2899,0.4442,0.0078,1.0283,0
2004/4/1 7:30,9.0953,0,0,3.8526,0.1228,0.4147,0.0552,1.1857,0
2004/4/1 7:45,3.4766,0,0,1.6289,0.2496,0.4242,0.0078,1.0583,0
2004/4/1 8:00,1.0542,0,0,0.1822,0.2949,0.4167,0.0547,1.042,0
2004/4/1 8:15,0.2796,0,0,0.1957,0.0888,0.4232,0.054,1.4446,0
2004/4/1 8:30,0,0,0,0.2156,0.1812,0.2038,0.0078,1.3154,0
2004/4/1 8:45,0,0,0,0.2167,0.3025,0.0419,0.0482,1.2767,0
2004/4/1 9:00,0,0,0,0.2074,0.2431,0.0416,0.0078,1.2059,0
2004/4/1 9:15,0,0,0,0.214,0.1313,0.4395,0.0526,1.0198,0
2004/4/1 9:30,0,0,0,0.2075,0.3819,0.447,0.0078,0.9791,0
2004/4/1 9:45,0,0,0,0.2157,0.2724,0.4707,0.0544,0.9356,0
2004/4/1 10:00,0,0,0,0.2137,0.0674,0.4582,0.0082,0.9708,0
2004/4/1 10:15,0,0,0,0.2085,0.2352,0.4513,0.0544,0.92,0
2004/4/1 10:30,0,0,0,0.2138,0.2998,0.4484,0.0078,0.5352,0
2004/4/1 10:45,0,0,0,0.2159,0.0989,0.4569,0.0078,0.8099,0
2004/4/1 11:00,0,0,0,0.2071,0.1947,0.1221,0.0508,0.7652,0
2004/4/1 11:15,0,0,0,0.219,0.2988,0.088,0.0078,0.68,0
2004/4/1 11:30,0,0,0,0.2111,0.0868,0.0873,0.0546,0.9012,0
2004/4/1 11:45,0,0,0,0.2062,0.2125,0.0871,0.1502,1.3241,0
2004/4/1 12:00,0,0,0,0.2091,0.3043,0.0874,0.0546,1.9335,0
2004/4/1 12:15,0,0,0,0.2062,0.1371,0.087,0.0078,0.8319,0
2004/4/1 12:30,0,0,0,0.211,0.1896,0.0865,0.0078,0.8688,0
2004/4/1 12:45,0,0,0,0.2061,0.3038,0.0868,0.0825,1.9496,0
2004/4/1 13:00,0,0,0,0.2055,0.1454,0.0867,0.7489,1.1318,0
2004/4/1 13:15,0,0,0,0.9844,0.1778,0.0865,0.7191,1.1848,0
2004/4/1 13:30,0,0,0,4.0974,0.3041,0.0864,0.6378,0.7295,0
2004/4/1 13:45,0,0,0,4.6848,0.1312,0.4598,0.4103,0.7596,0
2004/4/1 14:00,0,0,0,1.1938,0.2282,0.2818,0.0078,1.1628,0
2004/4/1 14:15,0,0,0,0.0706,0.2998,0.2969,0.0078,0.5842,0
2004/4/1 14:30,0,0,0,0.2922,0.2339,0.4422,0.051,0.5868,0
2004/4/1 14:45,0,0,0,0.1051,0.1734,0.487,0.0078,0.5499,0
2004/4/1 15:00,0,0,0,0.125,0.3876,0.4576,0.0539,0.5688,0
2004/4/1 15:15,0,0,0,0.1362,0.2809,0.0883,0.0078,0.6772,0
2004/4/1 15:30,0,0,0,0.1388,0.1765,0.0878,0.0078,1.032,0
2004/4/1 15:45,0,0,0,0.1392,0.3832,0.0876,0.0528,1.04,0
2004/4/1 16:00,0,0,0,0.1372,0.2671,0.0881,0.0078,1.0382,0
2004/4/1 16:15,0,0,0,0.1369,0.1388,0.0881,0.0511,1.0194,0
2004/4/1 16:30,0,0,0,0.1375,0.3829,0.1528,0.0078,1.2292,0
2004/4/1 16:45,0,0,0,0.1385,0.2585,0.1407,0.0508,1.2358,0
2004/4/1 17:00,0,0,0,0.1355,0.1578,0.4549,0.0079,1.1812,0
2004/4/1 17:15,0,0,0,0.1395,0.3794,0.4689,0.0076,1.2339,0
2004/4/1 17:30,0,0,0,0.1397,0.3486,0.1879,0.0534,1.3056,0
2004/4/1 17:45,0,0,0,0.8617,0.345,0.0876,0.0078,1.3873,0
2004/4/1 18:00,0,0,0,0.4681,0.0304,0.0878,0.0533,1.3137,0
2004/4/1 18:15,0,0,0,1.5384,0.3139,0.0877,0.0076,1.8066,0
2004/4/1 18:30,0,0,0,0.6281,0.3581,0.0877,0.0078,1.8733,0
2004/4/1 18:45,0,0,0,2.7804,0.0649,0.0881,0.0552,1.8791,0
2004/4/1 19:00,0,0,0,1.4459,0.3931,0.2208,0.0078,1.8573,0
2004/4/1 19:15,0,0,0,1.7436,0.3364,0.2104,0.0507,1.4404,0
2004/4/1 19:30,0,0,0,0.176,0.0415,0.2412,0.0078,1.2724,0
2004/4/1 19:45,0,0,0,0.1698,0.3923,0.419,0.0076,1.28,0
2004/4/1 20:00,0,0,0,0.1928,0.212,0.4131,0.0498,1.6194,0
2004/4/1 20:15,0,0,0,0.2051,0.2308,0.1194,0.0076,3.3097,0
2004/4/1 20:30,0,0,0,0.1997,0.3777,0.0418,0.0566,1.3732,0
2004/4/1 20:45,0,0,0,0.2062,0.177,0.0419,0.0079,1.7649,0
2004/4/1 21:00,0,0,0,0.2089,0.2553,0.0418,0.0078,1.4933,0
2004/4/1 21:15,0,0,0,0.2074,0.3707,0.0422,0.0544,1.7207,0
2004/4/1 21:30,0,0,0,0.2055,0.1698,0.0418,0.0078,1.617,0
2004/4/1 21:45,0,0,0,0.2046,0.2356,0.0416,0.0527,1.3313,0
2004/4/1 22:00,0,0,0,0.2055,0.3732,0.0415,0.0078,1.4826,0
2004/4/1 22:15,2.4047,0,0,0.2028,0.0298,0.0413,0.0076,1.4446,0
2004/4/1 22:30,11.0843,0,0,0.5052,0.2884,0.3286,0.0478,1.2447,0
2004/4/1 22:45,11.1551,0,0,0.2055,0.2899,0.3999,0.0078,1.2384,0
2004/4/1 23:00,11.0537,0,0,0.2108,0.1096,0.4058,0.0554,1.2862,0
2004/4/1 23:15,11.068,0,0,0.2007,0.3273,0.4062,0.0076,1.3087,0
2004/4/1 23:30,11.0206,0,0,0.2056,0.3699,0.408,0.0539,1.4668,0
2004/4/1 23:45,11.3488,0,0,0.2029,0.0975,0.408,0.0078,1.4178,0
2004/4/2 0:00,11.3416,0,0,0.2105,0.3357,0.3984,0.0079,1.6671,0
2004/4/2 0:15,4.5677,0,0,0.2046,0.3803,0.2244,0.0485,1.2659,0
2004/4/2 0:30,1.4695,0,0,0.2066,0.2994,0.0423,0.0078,1.2427,0
2004/4/2 0:45,9.5053,0,0,0.2101,0.1279,0.0423,0.0554,1.2741,0
2004/4/2 1:00,9.9503,0,0,0.2048,0.3884,0.0425,0.0078,1.3363,0
2004/4/2 1:15,1.4534,0,0,1.3228,0.282,0.042,0.0078,0.6728,0
2004/4/2 1:30,1.4554,0,0,0.4166,0.1417,0.042,0.0549,0.1218,0
2004/4/2 1:45,6.3181,0,0,0.2259,0.3823,0.0419,0.0078,0.2326,0
2004/4/2 2:00,10.7849,0,0,0.2003,0.3678,0.042,0.0547,0.3555,0
2004/4/2 2:15,1.4692,0,0,0.2346,0.271,0.0423,0.0078,0.285,0
2004/4/2 2:30,0.0163,0,0,0.239,0.5643,0.0425,0.0078,0.3187,0
2004/4/2 2:45,0.6208,0,0,0.2369,0.5384,0.0428,0.0553,0.3128,0
2004/4/2 3:00,6.7664,0,0,0.235,0.4847,0.0426,0.0078,0.3048,0
2004/4/2 3:15,8.6931,0,0,0.2416,0.4611,0.0422,0.0078,0.3689,0
2004/4/2 3:30,0,0,0,0.2372,0.4277,0.0426,0.0534,0.3181,0
2004/4/2 3:45,0.6117,0,0,0.2389,0.4524,0.0428,0.0078,0.3116,0
2004/4/2 4:00,1.4887,0,0,0.2383,0.4056,0.0428,0.0588,0.3059,0
2004/4/2 4:15,0.3721,0,0,0.2372,0.0312,0.0428,0.0078,0.3283,0
2004/4/2 4:30,7.3858,0,0,0.2428,0.336,0.0428,0.0079,0.3086,0
2004/4/2 4:45,5.6938,0,0,0.2425,0.3622,0.0426,0.0556,0.3502,0
2004/4/2 5:00,1.4901,0,0,0.238,0.0569,0.0428,0.0078,0.2992,0
2004/4/2 5:15,0.0413,0,0,0.2484,0.3862,0.0429,0.0079,0.3277,0
2004/4/2 5:30,0,0,0,0.2389,0.3534,0.0425,0.0553,0.3319,0
2004/4/2 5:45,0.7021,0,0,0.2418,0.0382,0.0423,0.0078,0.301,0
2004/4/2 6:00,6.2977,0,0,0.2454,0.1804,0.0422,0.0523,0.2389,0
2004/4/2 6:15,7.5139,0,0,0.2377,0.2979,0.0422,0.0078,0.3115,0
2004/4/2 6:30,0,0,0,0.2422,0.1416,0.0425,0.0078,0.3352,0
2004/4/2 6:45,0.3851,0,0,0.2432,0.1852,0.0429,0.059,0.3044,0
2004/4/2 7:00,1.4666,0,0,2.4371,0.3001,0.417,0.0079,1.0744,0
2004/4/2 7:15,0.29,0,0,1.3265,0.337,0.4435,0.0076,1.5569,0
2004/4/2 7:30,0,0,0,0.1529,0.3239,0.4133,0.0562,1.103,0
2004/4/2 7:45,9.1102,0,0,1.3781,0.1008,0.4192,0.051,1.0754,0
2004/4/2 8:00,4.7874,0,0,0.6021,0.3934,0.4287,0.0076,1.275,0
2004/4/2 8:15,0.2808,0,0,0.1368,0.3051,0.426,0.0521,1.2344,0
2004/4/2 8:30,0,0,0,0.1358,0.1139,0.4055,0.0078,1.2034,0
2004/4/2 8:45,0,0,0,0.1362,0.3842,0.4288,0.0556,1.1858,0
2004/4/2 9:00,0,0,0,0.1382,0.3622,0.3802,0.0076,1.1739,0
2004/4/2 9:15,0,0,0,0.1312,0.3993,0.0418,0.0078,1.2735,0
2004/4/2 9:30,0,0,0,0.1405,0.2503,0.0418,0.0523,1.6766,0
2004/4/2 9:45,0,0,0,0.1368,0.2112,0.0822,0.0078,1.8334,0
2004/4/2 10:00,0,0,0,0.1322,0.3829,0.07,0.055,1.2789,0
2004/4/2 10:15,0,0,0,0.1331,0.2066,0.042,0.0078,0.4236,0
2004/4/2 10:30,0,0,0,0.1372,0.2268,0.042,0.0078,0.4176,0
2004/4/2 10:45,0,0,0,0.1328,0.3754,0.0422,0.0528,0.4107,0
2004/4/2 11:00,0,0,0,0.1371,0.2007,0.0419,0.0076,0.417,0
2004/4/2 11:15,0,0,0,0.1377,0.2298,0.042,0.0625,0.4077,0
2004/4/2 11:30,0,0,0,0.1356,0.3751,0.042,0.0078,0.4255,0
2004/4/2 11:45,0,0,0,0.1333,0.194,0.0423,0.0078,0.4363,0
2004/4/2 12:00,0,0,0,0.1368,0.0317,0.0422,0.051,0.4258,0
2004/4/2 12:15,0,0,0,0.1368,0.3136,0.0514,0.0078,0.4248,0
2004/4/2 12:30,0,0,0,0.1344,0.2889,0.0426,0.053,0.4164,0
2004/4/2 12:45,0,0,0,0.1365,0.0312,0.0428,0.0078,0.4209,0
2004/4/2 13:00,0,0,0,0.1341,0.3059,0.0429,0.0078,0.4323,0
2004/4/2 13:15,0,0,0,0.1345,0.264,0.0425,0.0531,0.4337,0
2004/4/2 13:30,0,0,0,0.1345,0.0304,0.0423,0.0078,0.4268,0
2004/4/2 13:45,0,0,0,0.1358,0.304,0.0423,0.0556,0.4188,0
2004/4/2 14:00,0,0,0,0.1344,0.27,0.0423,0.0076,0.4283,0
2004/4/2 14:15,0,0,0,0.1341,0.0351,0.0423,0.0079,0.4218,0
2004/4/2 14:30,0,0,0,0.1348,0.318,0.0426,0.0528,0.4182,0
2004/4/2 14:45,0,0,0,0.1342,0.2562,0.0425,0.0078,0.4343,0
2004/4/2 15:00,0,0,0,0.1344,0.0351,0.0425,0.0078,0.4203,0
2004/4/2 15:15,0,0,0,0.1381,0.3168,0.0425,0.0507,0.4277,0
2004/4/2 15:30,0,0,0,0.1322,0.2583,0.0426,0.0078,0.4169,0
2004/4/2 15:45,0,0,0,0.1368,0.1145,0.0426,0.0533,0.417,0
2004/4/2 16:00,0,0,0,0.1283,0.391,0.0423,0.0081,0.4733,0
2004/4/2 16:15,0,0,0,0.1355,0.3005,0.0425,0.0078,0.4919,0
2004/4/2 16:30,0,0,0,0.1348,0.1022,0.0426,0.0554,0.4143,0
2004/4/2 16:45,0,0,0,0.1354,0.3862,0.0423,0.0078,0.5399,0
2004/4/2 17:00,0,0,0,0.1308,0.354,0.0423,0.0078,1.4273,0
2004/4/2 17:15,0,0,0,0.1319,0.1884,0.1194,0.0537,1.5291,0
2004/4/2 17:30,0,0,0,0.6372,0.1777,0.3338,0.0078,1.4148,0
2004/4/2 17:45,0,0,0,0.1344,0.3914,0.0877,0.0553,1.434,0
2004/4/2 18:00,0,0,0,0.1299,0.2255,0.0878,0.0078,1.9119,0
2004/4/2 18:15,0,0,0,0.1358,0.2089,0.0876,0.0076,2.2353,0
2004/4/2 18:30,0,0,0,0.1316,0.3819,0.0876,0.0599,1.945,0
2004/4/2 18:45,0,0,0,0.1316,0.2488,0.0877,0.0078,2.8296,0
2004/4/2 19:00,0,0,0,3.1088,0.1859,0.0876,0.0076,2.7861,0
2004/4/2 19:15,0,0,0,2.4235,0.3864,0.3799,0.0546,2.0327,0
2004/4/2 19:30,0,0,0,0.4909,0.2352,0.4889,0.0078,2.0884,0
2004/4/2 19:45,0,0,0,0.1331,0.1644,0.4902,0.0078,2.2218,0
2004/4/2 20:00,0,0,0,0.1323,0.3895,0.4857,0.0451,1.8403,0
2004/4/2 20:15,0,0,0,0.1351,0.1002,0.4861,0.0078,1.903,0
2004/4/2 20:30,0,0,0,0.1365,0.2268,0.5034,0.0504,1.8488,0
2004/4/2 20:45,0,0,0,0.1359,0.3025,0.5013,0.0076,1.9339,0
2004/4/2 21:00,0,0,0,0.1312,0.0842,0.4892,0.0078,1.858,0
2004/4/2 21:15,0,0,0,0.1371,0.2431,0.2871,0.0528,1.9352,0
2004/4/2 21:30,0,0,0,0.1365,0.3012,0.2085,0.0078,1.8662,0
2004/4/2 21:45,0,0,0,0.1313,0.2026,0.1437,0.0078,1.8857,0
2004/4/2 22:00,0,0,0,0.1355,0.0945,0.0876,0.054,1.5124,0
2004/4/2 22:15,2.434,0,0,0.138,0.3113,0.0878,0.0078,1.2979,0
2004/4/2 22:30,11.1424,0,0,0.1332,0.3102,0.087,0.05,1.3454,0
2004/4/2 22:45,11.0984,0,0,0.1348,0.124,0.087,0.0076,1.3756,0
2004/4/2 23:00,11.0586,0,0,0.1385,0.3148,0.0868,0.0076,1.3563,0
2004/4/2 23:15,11.1626,0,0,0.1344,0.372,0.2228,0.0472,1.3213,0
2004/4/2 23:30,11.2552,0,0,0.1394,0.1057,0.4404,0.0078,1.4492,0
2004/4/2 23:45,11.1825,0,0,0.1332,0.3126,0.4048,0.0539,1.4138,0
2004/4/3 0:00,7.8974,0,0,0.1371,0.3732,0.3954,0.0078,1.3624,0
2004/4/3 0:15,0.5844,0,0,0.138,0.1004,0.3983,0.0078,1.4835,0
2004/4/3 0:30,0,0,0,0.1339,0.3226,0.4067,0.0508,1.7008,0
2004/4/3 0:45,0,0,0,0.1378,0.3669,0.415,0.0078,1.7509,0
2004/4/3 1:00,0,0,0,0.1346,0.0969,0.4692,0.0556,1.5745,0
2004/4/3 1:15,0,0,0,0.1368,0.2961,0.4153,0.0078,1.5828,0
2004/4/3 1:30,0,0,0,0.1387,0.3676,0.435,0.0078,1.5756,0
2004/4/3 1:45,0,0,0,0.1338,0.0912,0.339,0.049,1.2374,0
2004/4/3 2:00,0,0,0,0.1384,0.1261,0.042,0.0078,0.3578,0
2004/4/3 2:15,0,0,0,0.1385,0.3097,0.0422,0.0078,0.3633,0
2004/4/3 2:30,0,0,0,0.1354,0.2906,0.0422,0.0536,0.5365,0
2004/4/3 2:45,0,0,0,0.1416,0.2972,0.0422,0.0078,0.3486,0
2004/4/3 3:00,0,0,0,0.1313,0.3866,0.0425,0.0534,0.3593,0
2004/4/3 3:15,0,0,0,0.1378,0.5702,0.0428,0.0078,0.3571,0
2004/4/3 3:30,0,0,0,0.1404,0.471,0.0428,0.0078,0.3537,0
2004/4/3 3:45,0,0,0,0.1411,0.503,0.0428,0.0487,0.3555,0
2004/4/3 4:00,0,0,0,0.1336,0.4329,0.0429,0.0078,0.3659,0
2004/4/3 4:15,0,0,0,0.1413,0.4419,0.0431,0.0569,0.3555,0
2004/4/3 4:30,0,0,0,0.1352,0.4402,0.0423,0.0078,0.3552,0
2004/4/3 4:45,0,0,0,0.1385,0.1133,0.0419,0.0078,0.3547,0
2004/4/3 5:00,0,0,0,0.1398,0.234,0.0425,0.0487,0.3573,0
2004/4/3 5:15,0,0,0,0.1405,0.3695,0.0426,0.0078,0.3528,0
2004/4/3 5:30,0,0,0,0.1356,0.1223,0.0425,0.0577,0.3519,0
2004/4/3 5:45,0,0,0,0.1417,0.3367,0.0429,0.0079,0.3444,0
2004/4/3 6:00,0,0,0,0.138,0.1816,0.0426,0.0078,0.3541,0
2004/4/3 6:15,0,0,0,0.1433,0.161,0.0423,0.0554,0.3506,0
2004/4/3 6:30,0,0,0,0.1381,0.2968,0.0426,0.0078,0.3478,0
2004/4/3 6:45,0,0,0,0.1398,0.1377,0.0425,0.0078,0.3502,0
2004/4/3 7:00,0,0,0,0.1403,0.1224,0.042,0.054,0.3459,0
2004/4/3 7:15,0,0,0,0.1426,0.3038,0.0599,0.0078,0.3567,0
2004/4/3 7:30,0,0,0,0.1372,0.1365,0.0425,0.0511,0.3555,0
2004/4/3 7:45,0,0,0,0.1456,0.1647,0.0419,0.0078,0.3492,0
2004/4/3 8:00,0,0,0,0.1401,0.2982,0.0425,0.0076,0.3504,0
2004/4/3 8:15,0,0,0,0.1404,0.1313,0.0422,0.0552,0.3508,0
2004/4/3 8:30,0,0,0,0.1368,0.1375,0.0419,0.0078,0.3466,0
2004/4/3 8:45,0,0,0,0.1411,0.3027,0.042,0.0533,0.3524,0
2004/4/3 9:00,0,0,0,0.1351,0.1289,0.0416,0.0076,0.3437,0
2004/4/3 9:15,0,0,0,0.1427,0.1702,0.0418,0.0078,0.3407,0
2004/4/3 9:30,0,0,0,0.138,0.2987,0.0416,0.0501,0.3578,0
2004/4/3 9:45,0,0,0,0.1359,0.1384,0.0416,0.3619,0.7049,0
2004/4/3 10:00,0,0,0,1.7932,0.3037,0.0412,0.8626,1.3297,0
2004/4/3 10:15,0,0,0,0.3537,0.3493,0.0415,0.467,1.0515,0
2004/4/3 10:30,0,0,0,0.9449,0.0792,0.041,0.8099,1.1244,0
2004/4/3 10:45,0,0,0,0.3335,0.3907,0.1473,0.1495,1.1062,0
2004/4/3 11:00,0,0,0,0.7609,0.1957,0.1778,0.0079,1.187,0
2004/4/3 11:15,0,0,0,0.1352,0.2389,0.1744,0.0588,1.3116,0
2004/4/3 11:30,0,0,0,0.1377,0.3695,0.0504,0.0412,1.4279,0
2004/4/3 11:45,0,0,0,0.1352,0.0356,0.0674,0.0078,1.2894,0
2004/4/3 12:00,0,0,0,0.1367,0.2199,0.1647,0.0603,1.4054,0
2004/4/3 12:15,0,0,0,0.1352,0.2992,0.1826,0.0078,1.7734,0
2004/4/3 12:30,0,0,0,0.1395,0.0641,0.1633,0.0588,1.7592,0
2004/4/3 12:45,0,0,0,0.1331,0.2605,0.1567,0.0076,1.3997,0
2004/4/3 13:00,0,0,0,0.1371,0.2958,0.1356,0.0078,0.9685,0
2004/4/3 13:15,0,0,0,0.1335,0.1185,0.0419,0.0501,0.4103,0
2004/4/3 13:30,0,0,0,0.1368,0.3083,0.0418,0.0078,0.3933,0
2004/4/3 13:45,0,0,0,0.131,0.2746,0.0416,0.0516,0.3974,0
2004/4/3 14:00,0,0,0,0.1332,0.1007,0.0419,0.0076,0.4006,0
2004/4/3 14:15,0,0,0,0.1352,0.3077,0.0418,0.0078,0.4065,0
2004/4/3 14:30,0,0,0,0.1342,0.1905,0.0419,0.0526,0.3982,0
2004/4/3 14:45,0,0,0,0.5047,0.1169,0.0419,0.0078,0.4473,0
2004/4/3 15:00,0,0,0,4.3993,0.3066,0.0418,0.0546,0.8879,0
2004/4/3 15:15,0,0,0,0.9736,0.2837,0.1115,0.0078,0.8588,0
2004/4/3 15:30,0,0,0,0.1355,0.0919,0.1572,0.0078,0.9082,0
2004/4/3 15:45,0,0,0,0.1341,0.4019,0.162,0.0492,0.9014,0
2004/4/3 16:00,0,0,0,0.1309,0.3296,0.1659,0.0078,0.8708,0
2004/4/3 16:15,0,0,0,0.1356,0.0991,0.0468,0.0491,0.6722,0
2004/4/3 16:30,0,0,0,0.1367,0.3892,0.0419,0.0078,0.6225,0
2004/4/3 16:45,0,0,0,0.128,0.3578,0.0418,0.0078,0.6189,0
2004/4/3 17:00,0,0,0,0.1316,0.3894,0.0416,0.0556,0.6114,0
2004/4/3 17:15,0,0,0,0.132,0.2762,0.0418,0.0078,0.3233,0
2004/4/3 17:30,0,0,0,0.1309,0.055,0.0412,0.0078,0.3145,0
2004/4/3 17:45,0,0,0,0.138,0.3927,0.0416,0.0531,0.3257,0
2004/4/3 18:00,0,0,0,0.1313,0.2645,0.0419,0.0078,0.5299,0
2004/4/3 18:15,0,0,0,0.1365,0.1391,0.0415,0.055,1.5404,0
2004/4/3 18:30,0,0,0,0.1328,0.3803,0.041,0.0076,1.6193,0
2004/4/3 18:45,0,0,0,1.0912,0.1302,0.041,0.0076,1.4121,0
2004/4/3 19:00,0,0,0,0.9497,0.3017,0.4438,0.0504,1.4486,0
2004/4/3 19:15,0,0,0,1.4244,0.3109,0.4651,0.0078,2.0851,0
2004/4/3 19:30,0,0,0,0.3072,0.1215,0.4343,0.0516,1.7968,0
2004/4/3 19:45,0,0,0,3.6531,0.3891,0.4278,0.0078,1.9836,0
2004/4/3 20:00,0,0,0,0.1629,0.0729,0.4041,0.0078,1.8514,0
2004/4/3 20:15,0,0,0,0.1598,0.384,0.0423,0.0554,1.9138,0
2004/4/3 20:30,0,0,0,0.156,0.3637,0.042,0.0078,1.8078,0
2004/4/3 20:45,0,0,0,0.1616,0.0451,0.0413,0.0076,0.9383,0
2004/4/3 21:00,0,0,0,0.1885,0.3796,0.0415,0.0531,1.4361,0
2004/4/3 21:15,0,0,0,0.2013,0.3708,0.0412,0.0649,1.6913,0
2004/4/3 21:30,0,0,0,0.2017,0.0432,0.237,0.0078,1.5908,0
2004/4/3 21:45,0,0,0,0.2069,0.3969,0.3748,0.0556,1.6885,0
2004/4/3 22:00,0,0,0,0.1989,0.1387,0.3511,0.0078,2.2752,0
2004/4/3 22:15,0,0,0,0.201,0.2033,0.042,0.0078,1.2302,0
2004/4/3 22:30,0,0,0,0.2089,0.3,0.0423,0.0959,1.1177,0
2004/4/3 22:45,0,0,0,0.2098,0.1099,0.1097,0.6385,1.543,0
2004/4/3 23:00,0,0,0,0.2137,0.3302,0.1634,0.6378,1.3152,0
2004/4/3 23:15,0,0,0,0.2036,0.3851,0.1616,0.6134,1.3831,0
2004/4/3 23:30,0,0,0,0.2064,0.1786,0.16,0.338,1.3336,0
2004/4/3 23:45,0,0,0,0.2114,0.2632,0.1617,0.0078,1.4155,0
2004/4/4 0:00,0,0,0,0.2111,0.3705,0.1554,0.0445,1.4674,0
2004/4/4 0:15,0,0,0,0.2045,0.1973,0.1547,0.0078,1.3075,0
2004/4/4 0:30,0,0,0,0.2146,0.2445,0.1568,0.0552,1.2797,0
2004/4/4 0:45,0,0,0,0.2065,0.3783,0.1554,0.0078,1.2516,0
2004/4/4 1:00,0,0,0,0.2088,0.1688,0.094,0.0078,1.2207,0
2004/4/4 1:15,0,0,0,0.2091,0.2193,0.0426,0.0516,1.1444,0
2004/4/4 1:30,0,0,0,0.2123,0.3721,0.0425,0.0078,1.1167,0
2004/4/4 1:45,0,0,0,0.2948,0.3597,0.0422,0.0549,0.9681,0
2004/4/4 2:00,0,0,0,0.413,0.3074,0.0422,0.0078,0.5083,0
2004/4/4 2:15,0,0,0,0.2854,0.5207,0.0425,0.0078,0.2655,0
2004/4/4 2:30,0,0,0,0.1774,0.5652,0.0425,0.0547,0.339,0
2004/4/4 2:45,0,0,0,0.234,0.4599,0.0428,0.0078,0.3136,0
2004/4/4 3:00,0,0,0,0.2412,0.4723,0.0428,0.0078,0.3184,0
2004/4/4 3:15,0,0,0,0.2399,0.4149,0.0429,0.0504,0.3162,0
2004/4/4 3:30,0,0,0,0.249,0.453,0.0429,0.0078,0.3116,0
2004/4/4 3:45,0,0,0,0.2457,0.3072,0.0428,0.0552,0.3079,0
2004/4/4 4:00,0,0,0,0.2465,0.0432,0.0428,0.0078,0.3106,0
2004/4/4 4:15,0,0,0,0.2472,0.3904,0.0429,0.0078,0.3177,0
2004/4/4 4:30,0,0,0,0.2494,0.2383,0.0428,0.0533,0.3203,0
2004/4/4 4:45,0,0,0,0.2413,0.163,0.0428,0.0078,0.3115,0
2004/4/4 5:00,0,0,0,0.253,0.3699,0.0429,0.0546,0.3158,0
2004/4/4 5:15,0,0,0,0.2457,0.0533,0.0426,0.0078,0.3156,0
2004/4/4 5:30,0,0,0,0.247,0.3858,0.0428,0.0078,0.3159,0
2004/4/4 5:45,0,0,0,0.2529,0.0649,0.0428,0.0516,0.3165,0
2004/4/4 6:00,0,0,0,0.2438,0.2244,0.0429,0.0078,0.3213,0
2004/4/4 6:15,0,0,0,0.2497,0.2932,0.0431,0.0516,0.3188,0
2004/4/4 6:30,0,0,0,0.2508,0.0481,0.0432,0.0079,0.3208,0
2004/4/4 6:45,0,0,0,0.2513,0.2376,0.0426,0.0078,0.3175,0
2004/4/4 7:00,0,0,0,0.2517,0.2915,0.0419,0.0557,0.3074,0
2004/4/4 7:15,0,0,0,0.2478,0.0445,0.1911,0.0079,0.5112,0
2004/4/4 7:30,0,0,0,0.2546,0.2333,0.3999,0.0552,0.9917,0
2004/4/4 7:45,0,0,0,0.2196,0.2929,0.39,0.0078,1.0221,0
2004/4/4 8:00,0,0,0,0.1708,0.041,0.382,0.0078,1.0037,0
2004/4/4 8:15,0,0,0,0.1673,0.2483,0.2555,0.0541,1.029,0
2004/4/4 8:30,0,0,0,0.211,0.2913,0.0488,0.0078,1.2159,0
2004/4/4 8:45,0,0,0,0.2134,0.0372,0.0418,0.0485,1.1909,0
2004/4/4 9:00,0,0,0,0.219,0.2438,0.0416,0.0141,1.1892,0
2004/4/4 9:15,0,0,0,0.2146,0.2915,0.0416,0.0076,1.4478,0
2004/4/4 9:30,0,0,0,4.2039,0.052,0.0422,0.6136,2.053,0
2004/4/4 9:45,0,0,0,3.8547,0.3125,0.2647,2.0735,1.6101,0
2004/4/4 10:00,0,0,0,2.065,0.2896,0.36,0.9681,1.5885,0
2004/4/4 10:15,0,0,0,2.1473,0.0556,0.1822,0.053,1.1072,0
2004/4/4 10:30,0,0,0,0.0239,0.3908,0.1755,0.0078,1.6507,0
2004/4/4 10:45,0,0,0,1.6577,0.1915,0.1729,0.0778,2.4981,0
2004/4/4 11:00,0,0,0,0.111,0.2373,0.1725,0.0353,1.2773,0
2004/4/4 11:15,0,0,0,0.1424,0.2795,0.1225,0.0259,1.3892,0
2004/4/4 11:30,0,0,0,0.1453,0.1405,0.0419,0.0078,1.42,0
2004/4/4 11:45,0,0,0,0.1428,0.3505,0.042,0.0564,2.0112,0
2004/4/4 12:00,0,0,0,0.146,0.0294,0.0419,0.0078,1.9604,0
2004/4/4 12:15,0,0,0,0.1472,0.2949,0.0508,0.0552,1.8397,0
2004/4/4 12:30,0,0,0,0.1436,0.2599,0.0416,0.0076,1.758,0
2004/4/4 12:45,0,0,0,0.1464,0.0298,0.0419,0.0078,1.7446,0
2004/4/4 13:00,0,0,0,0.1489,0.2771,0.0418,0.0567,1.4839,0
2004/4/4 13:15,0,0,0,0.1453,0.256,0.0415,0.0078,1.2901,0
2004/4/4 13:30,0,0,0,0.1452,0.0632,0.0418,0.0472,1.4076,0
2004/4/4 13:45,0,0,0,0.1446,0.2873,0.2174,0.0078,1.5178,0
2004/4/4 14:00,0,0,0,0.1503,0.2523,0.4474,0.0516,1.5116,0
2004/4/4 14:15,0,0,0,0.1469,0.0462,0.4468,0.0078,1.5689,0
2004/4/4 14:30,0,0,0,0.9094,0.3103,0.5449,0.052,1.7912,0
2004/4/4 14:45,0,0,0,1.5564,0.2511,0.4944,0.0078,1.7473,0
2004/4/4 15:00,0,0,0,0.7201,0.1319,0.218,0.0588,1.3997,0
2004/4/4 15:15,0,0,0,0.1464,0.3041,0.2156,0.0078,1.3624,0
2004/4/4 15:30,0,0,0,0.1488,0.2454,0.1999,0.0078,1.3856,0
2004/4/4 15:45,0,0,0,0.1444,0.0998,0.0955,0.0537,1.4672,0
2004/4/4 16:00,0,0,0,0.1486,0.2987,0.0874,0.0076,1.5754,0
2004/4/4 16:15,0,0,0,0.1453,0.2539,0.0827,0.0534,1.9938,0
2004/4/4 16:30,0.0003,0,0,0.148,0.1148,0.041,0.0078,2.7844,0
2004/4/4 16:45,0.0003,0,0,0.1444,0.3043,0.0419,0.9389,2.4679,0
2004/4/4 17:00,0.0003,0,0,0.1495,0.2939,0.042,0.0078,1.5666,0
2004/4/4 17:15,0.0003,0,0,0.1428,0.2088,0.0422,0.0537,1.6559,0
2004/4/4 17:30,0.0003,0,0,0.1495,0.1568,0.3996,0.0078,1.5229,0
2004/4/4 17:45,0,0,0,0.1459,0.2992,0.5145,0.0472,1.5175,0
2004/4/4 18:00,0,0,0,1.0732,0.2108,0.5505,0.0078,1.4897,0
2004/4/4 18:15,0,0,0,0.9549,0.1561,0.5429,0.0536,1.4676,0
2004/4/4 18:30,0,0,0,1.1235,0.2991,0.5954,0.0078,1.6946,0
2004/4/4 18:45,0,0,0,3.5581,0.1879,0.6071,0.0517,1.0708,0
2004/4/4 19:00,0,0,0,0.3535,0.1342,0.6216,0.0078,1.4059,0
2004/4/4 19:15,0,0,0,0.1899,0.2981,0.3993,0.0078,4.5164,0
2004/4/4 19:30,0,0,0,0.1771,0.2222,0.2396,0.0524,4.5852,0
2004/4/4 19:45,0,0,0,0.1735,0.1666,0.2341,0.0076,5.3747,0
2004/4/4 20:00,0,0,0,0.1683,0.2958,0.3041,0.0564,4.9524,0
2004/4/4 20:15,0,0,0,0.6964,0.2076,0.5606,0.0081,2.7786,0
2004/4/4 20:30,0,0,0,0.382,0.1604,0.5247,0.0514,2.3157,0
2004/4/4 20:45,0,0,0,0.2108,0.2988,0.5062,0.0078,1.9629,0
2004/4/4 21:00,0,0,0,0.221,0.2032,0.5314,0.0536,2.13,0
2004/4/4 21:15,0,0,0,0.2412,0.1856,0.3272,0.0078,2.3416,0
2004/4/4 21:30,0,0,0,0.2285,0.2949,0.2164,0.0533,2.2296,0
2004/4/4 21:45,0,0,0,0.2236,0.0297,0.2111,0.0076,1.765,0
2004/4/4 22:00,0,0,0,0.2268,0.311,0.5181,0.0521,1.6314,0
2004/4/4 22:15,2.3556,0,0,0.2277,0.291,0.5597,0.0078,1.4028,0
2004/4/4 22:30,11.0879,0,0,1.2666,0.0855,0.5583,0.0563,2.0177,0
2004/4/4 22:45,11.1247,0,0,1.7659,0.3165,0.4974,0.0079,2.1871,0
2004/4/4 23:00,11.2124,0,0,0.108,0.2922,0.4912,0.0559,1.62,0
2004/4/4 23:15,11.3108,0,0,0.1633,0.0596,0.5592,0.0082,1.6219,0
2004/4/4 23:30,11.3086,0,0,0.2072,0.3051,0.5155,0.0572,1.9679,0
2004/4/4 23:45,11.074,0,0,0.2212,0.2886,0.4143,0.0082,3.1712,0
2004/4/5 0:00,11.055,0,0,0.2269,0.0602,0.4082,0.0539,2.8865,0
2004/4/5 0:15,11.1489,0,0,0.2242,0.293,0.0511,0.0078,1.5454,0
2004/4/5 0:30,11.3132,0,0,0.2317,0.2861,0.0419,0.0554,0.4193,0
2004/4/5 0:45,11.3413,0,0,0.2326,0.0517,0.0419,0.0078,0.2995,0
2004/4/5 1:00,11.4093,0,0,0.2363,0.2928,0.0422,0.0078,0.3119,0
2004/4/5 1:15,11.451,0,0,0.4111,0.2834,0.0425,0.0544,0.1151,0
2004/4/5 1:30,11.4808,0,0,0.4317,0.0926,0.0425,0.0078,0.1028,0
2004/4/5 1:45,11.3783,0,0,0.2766,0.2611,0.042,0.0585,0.25,0
2004/4/5 2:00,11.3305,0,0,0.2094,0.2868,0.0419,0.0078,0.4385,0
2004/4/5 2:15,11.3662,0,0,0.2514,0.3361,0.0422,0.055,0.3992,0
2004/4/5 2:30,11.4097,0,0,0.268,0.2848,0.042,0.0076,0.3224,0
2004/4/5 2:45,11.4834,0,0,0.2655,0.5576,0.0426,0.055,0.3131,0
2004/4/5 3:00,11.4725,0,0,0.2632,0.4769,0.0426,0.0078,0.4339,0
2004/4/5 3:15,11.5248,0,0,0.2706,0.506,0.0426,0.0566,0.3986,0
2004/4/5 3:30,11.5767,0,0,0.2648,0.4369,0.0428,0.0079,0.4977,0
2004/4/5 3:45,11.5746,0,0,0.2635,0.4278,0.0429,0.0524,0.5311,0
2004/4/5 4:00,11.5934,0,0,0.2688,0.4622,0.0429,0.0078,0.5293,0